Location: Jabiru
(12.6667°S, 132.8333°E)
Time: 04:06:34
(UTC+09:30)

Hubble Space Telescope - Visible Passes

Search period start: 17 June 2021 00:00
Search period end: 27 June 2021 00:00
Orbit: 535 x 539 km, 28.5° (Epoch: 16 June)

Date Brightness Start Highest point End Pass type
(mag) Time Alt. Az. Time Alt. Az. Time Alt. Az.
19 Jun 3.0 06:30:16 10° SSW 06:32:42 15° SSE 06:35:07 10° SE visible
20 Jun 2.8 06:19:01 10° SSW 06:21:53 18° SSE 06:24:44 10° ESE visible
21 Jun 2.6 06:08:09 11° SSW 06:11:02 21° SSE 06:14:16 10° ESE visible
22 Jun 2.3 05:57:51 16° SSW 06:00:11 26° SSE 06:03:42 10° E visible
23 Jun 1.9 05:47:36 24° SSW 05:49:18 33° SSE 05:53:05 10° E visible
24 Jun 1.5 05:37:21 35° SSW 05:38:25 43° SSE 05:42:22 10° E visible
24 Jun 3.2 19:16:34 10° NNE 19:17:37 11° NNE 19:18:39 10° NE visible
24 Jun 3.9 20:54:32 10° NW 20:54:54 12° NW 20:54:54 12° NW visible
25 Jun 0.9 05:27:08 56° S 05:27:29 59° SSE 05:31:34 10° ENE visible
25 Jun 2.9 19:04:13 10° N 19:06:38 15° NNE 19:09:04 10° ENE visible
25 Jun 3.4 20:43:32 10° WNW 20:44:42 18° WNW 20:44:42 18° WNW visible
26 Jun 0.9 05:16:55 71° E 05:16:55 71° E 05:20:41 10° ENE visible
26 Jun 2.5 18:52:33 10° NNW 18:55:41 21° NNE 18:58:48 10° E visible
26 Jun 2.9 20:32:36 10° WNW 20:34:31 26° WNW 20:34:31 26° WNW visible
